| time (UTC) | temp F | wind direction | speed MPH | gust MPH | rain 1hr in | rain 24hr in | rain mn in | humidity % | barometer mb |
| 20260901062236 | 72 | 15 | 2.0 | 8.0 | 0.00 | 0.63 | 0.63 | 69 | 431.0 |
| 20260901061235 | 71 | 5 | 2.0 | 8.0 | 0.00 | 0.63 | 0.63 | 70 | 766.3 |
| 20260901060230 | 71 | 21 | 0.0 | 6.0 | 0.00 | 0.63 | 0.63 | 71 | 675.2 |
| 20260901055231 | 70 | 11 | 0.0 | 0.0 | 0.00 | 0.63 | 0.63 | 73 | 494.1 |
| 20260901054231 | 69 | 10 | 0.0 | 0.0 | 0.00 | 0.63 | 0.63 | 74 | 858.2 |
| 20260901053711 | 69 | 11 | 0.0 | 0.0 | 0.00 | 0.63 | 0.63 | 74 | 781.3 |
| 20260901052231 | 68 | 9 | 0.0 | 0.0 | 0.00 | 0.63 | 0.63 | 75 | 428.8 |
| 20260901051231 | 68 | 0 | 0.0 | 0.0 | 0.00 | 0.63 | 0.63 | 74 | 405.8 |
| 20260901050717 | 68 | 5 | 0.0 | 0.0 | 0.00 | 0.63 | 0.63 | 74 | 823.0 |
| 20260901045230 | 69 | 9 | 0.0 | 0.0 | 0.00 | 0.63 | 0.63 | 74 | 572.4 |
| 20260901044226 | 69 | 5 | 0.0 | 0.0 | 0.00 | 0.63 | 0.63 | 73 | 991.2 |
| 20260901043224 | 69 | 9 | 0.0 | 0.0 | 0.00 | 0.63 | 0.63 | 73 | 588.7 |
| 20260901042223 | 69 | 9 | 0.0 | 0.0 | 0.00 | 0.63 | 0.63 | 73 | 475.5 |
| 20260901041218 | 69 | 355 | 0.0 | 0.0 | 0.00 | 0.63 | 0.63 | 73 | 614.4 |
| 20260901040650 | 69 | 355 | 0.0 | 0.0 | 0.00 | 0.63 | 0.63 | 73 | 631.6 |
| 20260901035216 | 70 | 0 | 0.0 | 0.0 | 0.00 | 0.63 | 0.63 | 73 | 642.0 |
| 20260901034209 | 70 | 355 | 0.0 | 0.0 | 0.00 | 0.63 | 0.63 | 72 | 1060.3 |
| 20260901033209 | 70 | 355 | 0.0 | 0.0 | 0.00 | 0.63 | 0.63 | 73 | 858.6 |
| 20260901032210 | 70 | 355 | 0.0 | 0.0 | 0.00 | 0.63 | 0.63 | 72 | 489.7 |
| 20260901031212 | 70 | 355 | 0.0 | 0.0 | 0.00 | 0.63 | 0.63 | 73 | 434.5 |
| 20260901030213 | 70 | 346 | 0.0 | 0.0 | 0.00 | 0.63 | 0.63 | 73 | 518.3 |
| 20260901025642 | 70 | 355 | 0.0 | 0.0 | 0.00 | 0.63 | 0.63 | 74 | 548.0 |
| 20260901024205 | 70 | 16 | 0.0 | 0.0 | 0.00 | 0.63 | 0.63 | 75 | 518.5 |
| 20260901023648 | 70 | 5 | 0.0 | 0.0 | 0.00 | 0.63 | 0.63 | 76 | 1001.7 |
| 20260901022206 | 70 | 5 | 0.0 | 0.0 | 0.00 | 0.63 | 0.63 | 76 | 935.2 |
| 20260901021203 | 69 | 16 | 0.0 | 0.0 | 0.00 | 0.63 | 0.63 | 78 | 1059.5 |
| 20260901020203 | 69 | 19 | 0.0 | 0.0 | 0.00 | 0.63 | 0.63 | 79 | 958.1 |
| 20260901015642 | 69 | 5 | 1.0 | 8.0 | 0.00 | 0.63 | 0.63 | 80 | 564.3 |
| 20260901014647 | 69 | 33 | 0.0 | 2.0 | 0.00 | 0.63 | 0.63 | 81 | 878.2 |
| 20260901014121 | 68 | 326 | 1.0 | 6.0 | 0.00 | 0.63 | 0.63 | 82 | 801.5 |
| 20260901012638 | 68 | 344 | 1.0 | 5.0 | 0.01 | 0.63 | 0.63 | 82 | 636.9 |
| 20260901011203 | 68 | 36 | 0.0 | 0.0 | 0.01 | 0.63 | 0.63 | 84 | 1130.2 |
| 20260901010203 | 68 | 36 | 0.0 | 4.0 | 0.01 | 0.63 | 0.63 | 84 | 764.8 |
| 20260901005204 | 68 | 30 | 0.0 | 5.0 | 0.01 | 0.63 | 0.63 | 82 | 900.9 |
| 20260901004203 | 68 | 0 | 1.0 | 8.0 | 0.01 | 0.63 | 0.63 | 82 | 524.9 |
| 20260901003205 | 69 | 355 | 1.0 | 7.0 | 0.01 | 0.63 | 0.63 | 80 | 1223.5 |
| 20260901002201 | 70 | 355 | 0.0 | 4.0 | 0.00 | 0.62 | 0.62 | 77 | 582.3 |
| 20260901001202 | 70 | 343 | 2.0 | 11.0 | 0.00 | 0.62 | 0.62 | 77 | 619.4 |
| 20260901000204 | 69 | 315 | 5.0 | 11.0 | 0.00 | 0.62 | 0.62 | 78 | 541.8 |
| 20260831235202 | 68 | 315 | 2.0 | 9.0 | 0.00 | 0.62 | 0.62 | 81 | 663.3 |
| 20260831234644 | 68 | 323 | 3.0 | 10.0 | 0.00 | 0.62 | 0.62 | 82 | 750.1 |
| 20260831233203 | 68 | 302 | 5.0 | 16.0 | 0.02 | 0.62 | 0.62 | 80 | 511.3 |
| 20260831232204 | 69 | 290 | 4.0 | 13.0 | 0.28 | 0.62 | 0.62 | 77 | 1013.1 |
| 20260831231651 | 69 | 346 | 7.0 | 15.0 | 0.61 | 0.62 | 0.62 | 77 | 492.7 |
| 20260831230700 | 68 | 326 | 7.0 | 16.0 | 0.62 | 0.62 | 0.62 | 80 | 774.2 |
| 20260831225157 | 68 | 355 | 7.0 | 13.0 | 0.62 | 0.62 | 0.62 | 82 | 1235.9 |
| 20260831224158 | 67 | 5 | 6.0 | 11.0 | 0.62 | 0.62 | 0.62 | 83 | 483.0 |
| 20260831223153 | 67 | 24 | 3.0 | 10.0 | 0.61 | 0.61 | 0.60 | 82 | 685.8 |
| 20260831222153 | 67 | 310 | 6.0 | 17.0 | 0.34 | 0.34 | 0.31 | 83 | 886.1 |
| 20260831221156 | 71 | 327 | 6.0 | 15.0 | 0.01 | 0.01 | 0.00 | 73 | 1001.1 |
| 20260831220153 | 75 | 319 | 7.0 | 13.0 | 0.00 | 0.00 | 0.00 | 64 | 872.7 |
| 20260831215147 | 77 | 12 | 5.0 | 11.0 | 0.00 | 0.00 | 0.00 | 57 | 1230.8 |
| 20260831214148 | 79 | 319 | 0.0 | 9.0 | 0.00 | 0.00 | 0.00 | 54 | 677.9 |
| 20260831213149 | 79 | 5 | 1.0 | 8.0 | 0.00 | 0.00 | 0.00 | 54 | 464.0 |
| 20260831212149 | 78 | 337 | 1.0 | 5.0 | 0.00 | 0.00 | 0.00 | 60 | 1015.7 |
| 20260831211631 | 77 | 5 | 0.0 | 3.0 | 0.00 | 0.00 | 0.00 | 72 | 483.4 |
| 20260831210146 | 77 | 65 | 0.0 | 0.0 | 0.00 | 0.00 | 0.00 | 72 | 590.7 |
| 20260831205143 | 77 | 65 | 0.0 | 0.0 | 0.00 | 0.00 | 0.00 | 71 | 1025.8 |
| 20260831204145 | 78 | 65 | 0.0 | 2.0 | 0.00 | 0.00 | 0.00 | 71 | 1064.3 |
| 20260831203140 | 78 | 65 | 0.0 | 0.0 | 0.00 | 0.00 | 0.00 | 70 | 959.5 |
| 20260831202140 | 78 | 65 | 0.0 | 2.0 | 0.00 | 0.00 | 0.00 | 70 | 547.3 |
| 20260831201141 | 78 | 65 | 1.0 | 3.0 | 0.00 | 0.00 | 0.00 | 71 | 1212.5 |
| 20260831200135 | 78 | 0 | 0.0 | 2.0 | 0.00 | 0.00 | 0.00 | 71 | 513.1 |
| 20260831195615 | 78 | 0 | 0.0 | 0.0 | 0.00 | 0.00 | 0.00 | 70 | 1185.3 |
| 20260831194131 | 78 | 0 | 0.0 | 0.0 | 0.00 | 0.00 | 0.00 | 71 | 1047.2 |
| 20260831193133 | 78 | 0 | 0.0 | 6.0 | 0.00 | 0.00 | 0.00 | 70 | 961.6 |
| 20260831192130 | 78 | 185 | 0.0 | 3.0 | 0.00 | 0.00 | 0.00 | 69 | 1009.9 |
| 20260831191131 | 79 | 185 | 0.0 | 0.0 | 0.00 | 0.00 | 0.00 | 69 | 1070.5 |
| 20260831190131 | 80 | 185 | 0.0 | 0.0 | 0.00 | 0.00 | 0.00 | 68 | 1035.3 |
| 20260831185130 | 80 | 185 | 0.0 | 0.0 | 0.00 | 0.00 | 0.00 | 67 | 1220.6 |
| 20260831184131 | 80 | 185 | 0.0 | 0.0 | 0.00 | 0.00 | 0.00 | 67 | 861.9 |
| 20260831183131 | 80 | 185 | 0.0 | 0.0 | 0.00 | 0.00 | 0.00 | 66 | 1143.4 |
| 20260831182624 | 81 | 185 | 0.0 | 0.0 | 0.00 | 0.00 | 0.00 | 65 | 570.2 |
| 20260831181132 | 81 | 185 | 0.0 | 0.0 | 0.00 | 0.00 | 0.00 | 65 | 776.2 |
| 20260831180127 | 81 | 185 | 0.0 | 0.0 | 0.00 | 0.00 | 0.00 | 66 | 1244.5 |
| 20260831175129 | 82 | 185 | 0.0 | 0.0 | 0.00 | 0.00 | 0.00 | 65 | 1048.5 |
| 20260831174125 | 82 | 185 | 0.0 | 5.0 | 0.00 | 0.00 | 0.00 | 65 | 1023.9 |
| 20260831173127 | 83 | 207 | 0.0 | 4.0 | 0.00 | 0.00 | 0.00 | 65 | 1011.5 |
| 20260831172126 | 83 | 208 | 0.0 | 4.0 | 0.00 | 0.00 | 0.00 | 64 | 1010.6 |
| 20260831171125 | 84 | 208 | 1.0 | 7.0 | 0.00 | 0.00 | 0.00 | 64 | 953.6 |
| 20260831170121 | 85 | 211 | 2.0 | 7.0 | 0.00 | 0.00 | 0.00 | 63 | 406.8 |
| 20260831165124 | 85 | 207 | 2.0 | 7.0 | 0.00 | 0.00 | 0.00 | 61 | 976.5 |
| 20260831164122 | 86 | 206 | 2.0 | 7.0 | 0.00 | 0.00 | 0.00 | 60 | 1160.1 |
| 20260831163123 | 87 | 219 | 2.0 | 7.0 | 0.00 | 0.00 | 0.00 | 58 | 418.7 |
| 20260831162603 | 87 | 214 | 1.0 | 5.0 | 0.00 | 0.00 | 0.00 | 56 | 895.8 |
| 20260831161119 | 88 | 219 | 1.0 | 5.0 | 0.00 | 0.00 | 0.00 | 51 | 489.3 |
| 20260831160119 | 89 | 214 | 1.0 | 4.0 | 0.00 | 0.00 | 0.00 | 47 | 809.2 |
| 20260831155600 | 89 | 213 | 1.0 | 5.0 | 0.00 | 0.00 | 0.00 | 47 | 704.6 |
| 20260831154117 | 88 | 187 | 1.0 | 7.0 | 0.00 | 0.00 | 0.00 | 48 | 812.3 |
| 20260831153557 | 88 | 225 | 3.0 | 9.0 | 0.00 | 0.00 | 0.00 | 47 | 623.0 |
| 20260831152117 | 89 | 267 | 1.0 | 8.0 | 0.00 | 0.00 | 0.00 | 47 | 809.0 |
| 20260831152038 | 89 | 230 | 1.0 | 8.0 | 0.00 | 0.00 | 0.00 | 46 | 671.7 |
| 20260831150543 | 89 | 279 | 1.0 | 7.0 | 0.00 | 0.00 | 0.00 | 45 | 1105.5 |
| 20260831145108 | 89 | 254 | 1.0 | 5.0 | 0.00 | 0.00 | 0.00 | 46 | 986.0 |
| 20260831144104 | 89 | 213 | 1.0 | 9.0 | 0.00 | 0.00 | 0.00 | 46 | 1012.3 |
| 20260831143104 | 89 | 227 | 1.0 | 7.0 | 0.00 | 0.00 | 0.00 | 44 | 1296.4 |
| 20260831142105 | 89 | 244 | 2.0 | 9.0 | 0.00 | 0.00 | 0.00 | 46 | 1025.4 |
| 20260831141058 | 89 | 238 | 2.0 | 7.0 | 0.00 | 0.00 | 0.00 | 45 | 715.2 |
| 20260831140101 | 89 | 214 | 2.0 | 7.0 | 0.00 | 0.00 | 0.00 | 47 | 1014.4 |
| 20260831135539 | 89 | 267 | 2.0 | 8.0 | 0.00 | 0.00 | 0.00 | 48 | 730.7 |
| 20260831134054 | 88 | 284 | 3.0 | 8.0 | 0.00 | 0.00 | 0.00 | 48 | 1270.8 |
| 20260831133055 | 88 | 273 | 2.0 | 7.0 | 0.00 | 0.00 | 0.00 | 47 | 918.5 |
| 20260831132056 | 89 | 232 | 1.0 | 6.0 | 0.00 | 0.00 | 0.00 | 49 | 534.9 |
| 20260831131052 | 88 | 250 | 2.0 | 9.0 | 0.00 | 0.00 | 0.00 | 49 | 1226.6 |
| 20260831130049 | 89 | 202 | 1.0 | 5.0 | 0.00 | 0.00 | 0.00 | 47 | 421.3 |
| 20260831125051 | 88 | 261 | 2.0 | 6.0 | 0.00 | 0.00 | 0.00 | 47 | 581.4 |
| 20260831124046 | 88 | 259 | 3.0 | 9.0 | 0.00 | 0.00 | 0.00 | 48 | 407.9 |
| 20260831123046 | 88 | 271 | 1.0 | 7.0 | 0.00 | 0.00 | 0.00 | 49 | 1013.4 |
| 20260831122046 | 87 | 244 | 2.0 | 8.0 | 0.00 | 0.00 | 0.00 | 49 | 1012.8 |
| 20260831121043 | 87 | 254 | 2.0 | 9.0 | 0.00 | 0.00 | 0.00 | 50 | 618.0 |
| 20260831120042 | 88 | 254 | 2.0 | 8.0 | 0.00 | 0.00 | 0.00 | 51 | 959.5 |
| 20260831115044 | 88 | 201 | 2.0 | 7.0 | 0.00 | 0.00 | 0.00 | 52 | 1013.0 |
| 20260831114524 | 87 | 195 | 2.0 | 8.0 | 0.00 | 0.00 | 0.00 | 51 | 1016.8 |
| 20260831113033 | 88 | 193 | 0.0 | 6.0 | 0.00 | 0.00 | 0.00 | 53 | 1025.1 |
| 20260831112035 | 88 | 182 | 0.0 | 3.0 | 0.00 | 0.00 | 0.00 | 51 | 1013.1 |
| 20260831111506 | 87 | 182 | 1.0 | 5.0 | 0.00 | 0.00 | 0.00 | 52 | 1013.1 |
| 20260831110031 | 87 | 182 | 1.0 | 8.0 | 0.00 | 0.00 | 0.00 | 51 | 1013.2 |
| 20260831105031 | 86 | 248 | 1.0 | 7.0 | 0.00 | 0.00 | 0.00 | 52 | 1103.4 |
| 20260831104033 | 86 | 218 | 0.0 | 4.0 | 0.00 | 0.00 | 0.00 | 52 | 1013.2 |
| 20260831103030 | 86 | 218 | 1.0 | 4.0 | 0.00 | 0.00 | 0.00 | 53 | 1013.3 |
| 20260831102958 | 86 | 215 | 1.0 | 6.0 | 0.00 | 0.00 | 0.00 | 54 | 1013.5 |
| 20260831101029 | 85 | 355 | 1.0 | 5.0 | 0.00 | 0.00 | 0.00 | 54 | 1010.9 |
| 20260831100031 | 85 | 11 | 0.0 | 3.0 | 0.00 | 0.00 | 0.00 | 55 | 1013.6 |
| 20260831095027 | 85 | 11 | 0.0 | 3.0 | 0.00 | 0.00 | 0.00 | 55 | 1013.7 |
| 20260831094511 | 85 | 31 | 0.0 | 3.0 | 0.00 | 0.00 | 0.00 | 53 | 1067.7 |
| 20260831093027 | 86 | 31 | 0.0 | 3.0 | 0.00 | 0.00 | 0.00 | 53 | 1084.8 |
| 20260831092029 | 85 | 31 | 0.0 | 3.0 | 0.00 | 0.00 | 0.00 | 53 | 1013.7 |
| 20260831091024 | 85 | 30 | 0.0 | 1.0 | 0.00 | 0.00 | 0.00 | 52 | 1013.7 |
| 20260831090023 | 85 | 30 | 0.0 | 2.0 | 0.00 | 0.00 | 0.00 | 53 | 1002.3 |
| 20260831085024 | 85 | 30 | 1.0 | 4.0 | 0.00 | 0.00 | 0.00 | 53 | 1011.5 |
| 20260831084020 | 84 | 30 | 0.0 | 2.0 | 0.00 | 0.00 | 0.00 | 54 | 1188.7 |
| 20260831083018 | 83 | 30 | 0.0 | 3.0 | 0.00 | 0.00 | 0.00 | 55 | 1013.7 |
| 20260831082018 | 83 | 30 | 0.0 | 3.0 | 0.00 | 0.00 | 0.00 | 56 | 548.7 |
| 20260831081019 | 82 | 30 | 0.0 | 1.0 | 0.00 | 0.00 | 0.00 | 56 | 1089.0 |
| 20260831080016 | 81 | 30 | 0.0 | 4.0 | 0.00 | 0.00 | 0.00 | 57 | 1013.7 |
| 20260831075936 | 81 | 30 | 0.0 | 3.0 | 0.00 | 0.00 | 0.00 | 57 | 1013.6 |
| 20260831074503 | 80 | 29 | 1.0 | 4.0 | 0.00 | 0.00 | 0.00 | 58 | 763.8 |
| 20260831073010 | 80 | 9 | 0.0 | 4.0 | 0.00 | 0.00 | 0.00 | 61 | 1013.5 |
| 20260831072009 | 79 | 9 | 0.0 | 3.0 | 0.00 | 0.00 | 0.00 | 61 | 1013.4 |
| 20260831071008 | 79 | 9 | 0.0 | 1.0 | 0.00 | 0.00 | 0.00 | 61 | 536.4 |
| 20260831070013 | 78 | 9 | 0.0 | 3.0 | 0.00 | 0.00 | 0.00 | 64 | 1015.0 |
| 20260831065447 | 78 | 9 | 0.0 | 3.0 | 0.00 | 0.00 | 0.00 | 63 | 1061.7 |